Location: Unspecified
(0.0000°N, 0.0000°E)
Time: 17:57:25
(UTC+00:00)

HTV-X1 - Pass Details

Date: 07 May 2026
Orbit: 372 x 382 km, 51.6° (Epoch: 21 May)

Event Time Altitude Azimuth Distance (km) Brightness Sun altitude
Rises 18:15:33 0° 206° (SSW) 2,226 ? -4.5°
Reaches altitude 10° 18:17:39 10° 200° (SSW) 1,372 ? -5.0°
Maximum altitude 18:20:36 44° 126° (SE) 524 ? -5.7°
Drops below altitude 10° 18:23:31 10° 51° (NE) 1,362 ? -6.4°
Sets 18:25:36 0° 45° (NE) 2,207 ? -6.9°
